Home   Weather   Schweinfurt   Past weeks

Flag for Germany Past Weather in Schweinfurt, Bavaria, Germany — Yesterday and Last 2 Weeks

Now
40 °F

Partly cloudy.


Feels Like: 34 °F
Forecast: 39 / 53 °F
Wind: 8 mph from Southwest

Location: Illesheim

Current Time: Apr 29, 2017 at 1:38:51 am

Latest Report: Apr 29, 2017 at 12:58 am


Visibility: N/A

Pressure: 30.05 "Hg

Humidity: 75%

Dew Point: 32 °F

Location of SchweinfurtLocation

Past Weather in Schweinfurt — Graph

°F

Schweinfurt Temperature Yesterday

Maximum temperature yesterday: 50 °F (at 5:58 pm)
Minimum temperature yesterday: 37 °F (at 9:58 pm)
Average temperature yesterday: 43 °F

High & Low Weather Summary for the Past Weeks

 TemperatureHumidityPressure
High61 °F (Apr 24, 5:58 pm)100% (Apr 15, 8:27 pm)30.62 "Hg (Apr 15, 8:27 pm)
Low21 °F (Apr 20, 5:58 am)36% (Apr 24, 5:58 pm)29.71 "Hg (Apr 25, 5:58 am)
Average42 °F79%30.11 "Hg
* Reported Apr 13 11:58 pm — Apr 28 11:58 pm, Schweinfurt, Weather by CustomWeather, © 2017

Note: Actual official high and low records may vary slightly from our data, if they occured in-between our weather recording intervals... More about our weather records

Advertising

Schweinfurt Weather History for the Previous 24 Hours

Scroll right to see more
 ConditionsComfort  
Time TempWeatherWind HumidityBarometerVisibility
11:58 pm
Fri, Apr 28
40 °FMostly cloudy.6 mph76%30.04 "HgN/A
10:58 pm41 °FMostly cloudy.6 mph80%30.03 "HgN/A
9:58 pm37 °FPassing clouds.5 mph80%30.03 "HgN/A
8:58 pm42 °FMostly cloudy.6 mph75%30.01 "HgN/A
7:58 pm49 °FPartly sunny.7 mph57%29.98 "HgN/A
7:25 pm48 °FScattered clouds.3 mph54%29.94 "HgN/A
7:12 pm48 °FLight rain. Passing clouds.12 mph54%29.95 "HgN/A
6:58 pm49 °FPassing clouds.3 mph58%29.97 "HgN/A
5:58 pm50 °FOvercast.3 mph54%29.96 "HgN/A
4:58 pm48 °FOvercast.5 mph62%29.96 "HgN/A
3:58 pm44 °FBroken clouds.3 mph68%29.96 "HgN/A
3:39 pm43 °FCloudy.7 mph76%29.94 "HgN/A
2:58 pm47 °FMore clouds than sun.12 mph64%29.96 "HgN/A
1:58 pm47 °FPartly sunny.5 mph53%29.94 "HgN/A
12:58 pm50 °FCloudy.8 mph59%29.91 "HgN/A
11:58 am47 °FBroken clouds.6 mph67%29.92 "HgN/A
10:58 am46 °FBroken clouds.5 mph78%29.93 "HgN/A
10:30 am45 °FMostly cloudy.5 mph81%29.91 "Hg5 mi
10:21 am45 °FMostly cloudy.No wind81%29.91 "Hg4 mi
8:58 am41 °FPartly sunny.5 mph100%29.93 "HgN/A
8:42 am41 °FPartly sunny.5 mph100%29.90 "HgN/A
7:58 am40 °FScattered clouds.3 mph100%29.92 "HgN/A
7:30 am39 °FFog.No wind100%29.89 "Hg5 mi
7:07 am39 °FFog.No wind100%29.89 "Hg4 mi
6:56 am39 °FFog.No wind100%29.89 "Hg5 mi
6:40 am39 °FFog.No wind100%29.89 "Hg4 mi
6:00 am39 °FLight rain. Fog.5 mph100%29.89 "Hg6 mi
5:48 am39 °FFog.3 mph100%29.89 "Hg5 mi
4:58 am38 °FFog.5 mph100%29.93 "Hg3 mi
3:58 am38 °FFog.No wind100%29.92 "Hg4 mi
3:38 am39 °FFog.No wind100%29.89 "Hg4 mi
3:03 am39 °FFog.No wind100%29.90 "Hg5 mi
2:58 am39 °FFog.No wind100%29.93 "Hg4 mi
1:58 am39 °FFog.3 mph100%29.94 "Hg6 mi
Weather by CustomWeather, © 2017

See weather overviewHow to use our weather pages